• In Romania
  • List of Countries
  • For 7 days
  • Water Temperature
  • Satellite Maps
  • Weather Map
  • Weather Widgets
  • user-avatar
    Login

    Hourly Weather Bolshie Karkaly

    Today, 20 August, Monday

    Time Temperature Precipitation Wind Pressure Humidity
    00:00 +9°C° 0 mm 2 mps 732 mmHg 89%
    01:00 +8°C° 0 mm 2 mps 732 mmHg 90%
    02:00 +8°C° 0 mm 2 mps 732 mmHg 91%
    03:00 +8°C° 0 mm 2 mps 732 mmHg 91%
    04:00 +7°C° 0 mm 2 mps 732 mmHg 92%
    05:00 +8°C° 0 mm 2 mps 733 mmHg 89%
    06:00 +9°C° 0 mm 2 mps 733 mmHg 87%
    07:00 +9°C° 0 mm 2 mps 733 mmHg 85%
    08:00 +12°C° 0 mm 2 mps 733 mmHg 79%
    09:00 +14°C° 0 mm 2 mps 733 mmHg 73%
    10:00 +16°C° 0 mm 2 mps 733 mmHg 67%
    11:00 +16°C° 0 mm 3 mps 733 mmHg 63%
    12:00 +17°C° 0 mm 3 mps 732 mmHg 59%
    13:00 +18°C° 0 mm 3 mps 732 mmHg 56%
    14:00 +18°C° 0 mm 3 mps 732 mmHg 56%
    15:00 +18°C° 0 mm 3 mps 732 mmHg 57%
    16:00 +18°C° 0 mm 3 mps 732 mmHg 57%
    17:00 +17°C° 0 mm 2 mps 732 mmHg 62%
    18:00 +16°C° 0 mm 2 mps 732 mmHg 67%
    19:00 +15°C° 0 mm 1 mps 731 mmHg 71%
    20:00 +14°C° 0 mm 1 mps 731 mmHg 75%
    21:00 +13°C° 0 mm 1 mps 731 mmHg 78%
    22:00 +12°C° 0 mm 1 mps 731 mmHg 81%
    23:00 +12°C° 0 mm 1 mps 731 mmHg 81%

    Tomorrow, 21 August, Tuesday

    Time Temperature Precipitation Wind Pressure Humidity
    00:00 +12°C° 0 mm 1 mps 731 mmHg 81%
    01:00 +12°C° 0 mm 2 mps 731 mmHg 81%
    02:00 +12°C° 0 mm 2 mps 731 mmHg 82%
    03:00 +12°C° 0 mm 2 mps 731 mmHg 82%
    04:00 +11°C° 0 mm 3 mps 731 mmHg 82%
    05:00 +11°C° 0.3 mm 3 mps 731 mmHg 83%
    06:00 +12°C° 0.3 mm 3 mps 731 mmHg 84%
    07:00 +12°C° 0.3 mm 4 mps 731 mmHg 85%
    08:00 +13°C° 0.2 mm 4 mps 731 mmHg 83%
    09:00 +14°C° 0.2 mm 4 mps 731 mmHg 81%
    10:00 +15°C° 0.2 mm 5 mps 731 mmHg 79%
    11:00 +17°C° 0.2 mm 5 mps 731 mmHg 76%
    12:00 +19°C° 0.2 mm 5 mps 730 mmHg 74%
    13:00 +21°C° 0.2 mm 5 mps 730 mmHg 71%
    14:00 +21°C° 0.6 mm 5 mps 730 mmHg 70%
    15:00 +22°C° 0.6 mm 5 mps 730 mmHg 69%
    16:00 +22°C° 0.6 mm 5 mps 730 mmHg 68%
    17:00 +21°C° 0.3 mm 4 mps 729 mmHg 72%
    18:00 +20°C° 0.3 mm 3 mps 729 mmHg 76%
    19:00 +19°C° 0.3 mm 3 mps 729 mmHg 80%
    20:00 +18°C° 0 mm 2 mps 729 mmHg 81%
    21:00 +17°C° 0 mm 2 mps 729 mmHg 83%
    22:00 +17°C° 0 mm 2 mps 729 mmHg 84%
    23:00 +16°C° 0 mm 3 mps 729 mmHg 84%

    Day after tomorrow, 22 August, Wednesday

    Time Temperature Precipitation Wind Pressure Humidity
    00:00 +16°C° 0 mm 3 mps 728 mmHg 83%
    01:00 +14°C° 0 mm 3 mps 728 mmHg 83%
    02:00 +14°C° 0 mm 3 mps 728 mmHg 83%
    03:00 +14°C° 0 mm 3 mps 728 mmHg 82%
    04:00 +13°C° 0 mm 3 mps 728 mmHg 82%
    05:00 +14°C° 0 mm 3 mps 728 mmHg 81%
    06:00 +14°C° 0 mm 4 mps 728 mmHg 79%
    07:00 +15°C° 0 mm 4 mps 727 mmHg 78%
    08:00 +18°C° 0 mm 4 mps 727 mmHg 71%
    09:00 +20°C° 0 mm 5 mps 727 mmHg 64%
    10:00 +22°C° 0 mm 6 mps 727 mmHg 57%
    11:00 +23°C° 0 mm 6 mps 727 mmHg 53%
    12:00 +24°C° 0 mm 7 mps 727 mmHg 50%
    13:00 +26°C° 0 mm 7 mps 727 mmHg 46%
    14:00 +26°C° 0 mm 6 mps 726 mmHg 47%
    15:00 +26°C° 0 mm 6 mps 726 mmHg 48%
    16:00 +26°C° 0 mm 5 mps 726 mmHg 50%
    17:00 +23°C° 0 mm 5 mps 726 mmHg 58%
    18:00 +20°C° 0 mm 5 mps 726 mmHg 66%
    19:00 +17°C° 0 mm 5 mps 726 mmHg 75%
    20:00 +17°C° 0.1 mm 4 mps 726 mmHg 79%
    21:00 +17°C° 0.1 mm 4 mps 726 mmHg 84%
    22:00 +16°C° 0.1 mm 3 mps 726 mmHg 88%
    23:00 +14°C° 0.2 mm 3 mps 726 mmHg 90%

    23 August, Thursday

    Time Temperature Precipitation Wind Pressure Humidity
    00:00 +13°C° 0.2 mm 3 mps 726 mmHg 92%
    01:00 +12°C° 0.2 mm 3 mps 726 mmHg 93%
    02:00 +12°C° 0 mm 3 mps 726 mmHg 93%
    03:00 +11°C° 0 mm 3 mps 727 mmHg 94%
    04:00 +10°C° 0 mm 3 mps 727 mmHg 94%
    05:00 +10°C° 0 mm 3 mps 727 mmHg 91%
    06:00 +11°C° 0 mm 4 mps 728 mmHg 89%
    07:00 +11°C° 0 mm 4 mps 728 mmHg 87%
    08:00 +12°C° 0.1 mm 5 mps 728 mmHg 82%
    09:00 +14°C° 0.1 mm 5 mps 729 mmHg 76%
    10:00 +15°C° 0.1 mm 6 mps 729 mmHg 71%
    11:00 +15°C° 0.3 mm 6 mps 729 mmHg 68%
    12:00 +16°C° 0.3 mm 6 mps 730 mmHg 65%
    13:00 +16°C° 0.3 mm 6 mps 730 mmHg 63%
    14:00 +16°C° 0.2 mm 6 mps 730 mmHg 62%
    15:00 +16°C° 0.2 mm 6 mps 730 mmHg 61%
    16:00 +16°C° 0.2 mm 6 mps 731 mmHg 60%
    17:00 +15°C° 0.1 mm 5 mps 731 mmHg 65%
    18:00 +13°C° 0.1 mm 5 mps 731 mmHg 70%
    19:00 +12°C° 0.1 mm 4 mps 731 mmHg 75%
    20:00 +11°C° 0 mm 4 mps 732 mmHg 77%
    21:00 +10°C° 0 mm 4 mps 732 mmHg 79%
    22:00 +9°C° 0 mm 3 mps 732 mmHg 82%
    23:00 +9°C° 0 mm 3 mps 733 mmHg 82%

    24 August, Friday

    Time Temperature Precipitation Wind Pressure Humidity
    00:00 +8°C° 0 mm 3 mps 733 mmHg 83%
    01:00 +8°C° 0 mm 3 mps 733 mmHg 84%
    02:00 +8°C° 0 mm 3 mps 733 mmHg 84%
    03:00 +7°C° 0 mm 3 mps 733 mmHg 84%
    04:00 +7°C° 0 mm 3 mps 733 mmHg 84%
    05:00 +7°C° 0 mm 4 mps 733 mmHg 82%
    06:00 +8°C° 0 mm 4 mps 733 mmHg 79%
    07:00 +8°C° 0 mm 4 mps 733 mmHg 77%
    08:00 +10°C° 0 mm 5 mps 733 mmHg 71%
    09:00 +13°C° 0 mm 6 mps 733 mmHg 65%
    10:00 +14°C° 0 mm 7 mps 733 mmHg 59%
    11:00 +14°C° 0 mm 7 mps 733 mmHg 61%
    12:00 +14°C° 0 mm 7 mps 733 mmHg 63%
    13:00 +14°C° 0 mm 7 mps 733 mmHg 65%
    14:00 +15°C° 0 mm 7 mps 733 mmHg 66%
    15:00 +15°C° 0 mm 7 mps 732 mmHg 68%
    16:00 +15°C° 0 mm 7 mps 732 mmHg 69%
    17:00 +15°C° 0 mm 6 mps 732 mmHg 74%
    18:00 +14°C° 0 mm 5 mps 732 mmHg 78%
    19:00 +14°C° 0 mm 4 mps 732 mmHg 82%
    20:00 +13°C° 0.1 mm 3 mps 732 mmHg 86%
    21:00 +12°C° 0.1 mm 3 mps 732 mmHg 90%
    22:00 +11°C° 0.1 mm 3 mps 732 mmHg 94%
    23:00 +11°C° 0 mm 3 mps 732 mmHg 94%

    25 August, Saturday

    Time Temperature Precipitation Wind Pressure Humidity
    00:00 +11°C° 0 mm 3 mps 732 mmHg 94%
    01:00 +11°C° 0 mm 3 mps 733 mmHg 94%
    02:00 +11°C° 0 mm 3 mps 733 mmHg 94%
    03:00 +10°C° 0 mm 3 mps 733 mmHg 94%
    04:00 +9°C° 0 mm 3 mps 733 mmHg 95%
    05:00 +10°C° 0 mm 3 mps 733 mmHg 93%
    06:00 +10°C° 0 mm 3 mps 733 mmHg 92%
    07:00 +11°C° 0 mm 4 mps 734 mmHg 90%
    08:00 +13°C° 0 mm 4 mps 734 mmHg 84%
    09:00 +14°C° 0 mm 4 mps 734 mmHg 77%
    10:00 +16°C° 0 mm 5 mps 734 mmHg 71%
    11:00 +17°C° 0 mm 5 mps 734 mmHg 67%
    12:00 +19°C° 0 mm 5 mps 734 mmHg 63%
    13:00 +20°C° 0 mm 5 mps 734 mmHg 59%
    14:00 +20°C° 0 mm 5 mps 734 mmHg 59%
    15:00 +20°C° 0 mm 5 mps 734 mmHg 59%
    16:00 +20°C° 0 mm 5 mps 734 mmHg 59%
    17:00 +19°C° 0 mm 4 mps 733 mmHg 65%
    18:00 +17°C° 0 mm 3 mps 733 mmHg 71%
    19:00 +16°C° 0 mm 2 mps 733 mmHg 77%
    20:00 +15°C° 0 mm 2 mps 733 mmHg 81%
    21:00 +14°C° 0 mm 2 mps 733 mmHg 84%
    22:00 +13°C° 0 mm 2 mps 733 mmHg 87%
    23:00 +13°C° 0 mm 2 mps 733 mmHg 88%
    Show more